sat.trackr.live / text

‹ back to catalog

2023-081W

NORAD 56866 · 2023-081W

PAYLOAD ACTIVE UNKNOWN

§ Identity

Operator
Country
PRC
Launch date
2023-06-07
Launch site
JSC
Launch vehicle
Mass (kg)
RCS (m²)

External: N2YO · Heavens-Above · Gunter

§ Orbital elements

Epoch: 2026-05-25T04:09:45.509760Z

Period
94.45 min
Inclination
97.2908°
Eccentricity
0.0012524
Mean motion
15.24636400 rev/d
Perigee alt
483.3 km
Apogee alt
500.5 km
Semi-major
6,870.0 km
B*
3.0538e-4
RAAN
209.3088°
Arg perigee
94.7573°
Mean anomaly
265.5096°
Rev number
16,452

§ Raw data

2023-081W1 56866U 23081W   26145.17344340  .00007485  00000+0  30538-3 0  99942 56866  97.2908 209.3088 0012524  94.7573 265.5096 15.24636400164529

JSON: /api/v1/satellites/56866 · /tle

For live sub-satellite position, see the globe view (requires WebGL).

§ Visibility from observer

Set your observer location to see the next 7 days of passes ≥ 10°. The values pass through the URL so the page stays shareable.

No JS? Fill the form by hand. The geolocation button needs JavaScript.

§ Radio — SatNOGS DB

ModeDescriptionDownlinkUplink
LoRa Lora 401.900 MHz

1 transmitter · refreshed weekly from db.satnogs.org